Regional Weather Roundup
Issued by NWS

Home | Current Version | Previous Version | Text Only | Print | Product List | Glossary On
Versions: 1 2 3 4 5 6 7 8 9 10 11 12 13 14 15 16 17 18 19 20 21 22 23 24 25 26 27 28 29 30 31 32 33 34 35 36 37 38 39 40 41 42 43 44 45 46 47 48 49 50
000
ASUS45 KBOU 310207
RWRCO

WEATHER ROUNDUP FOR COLORADO
NATIONAL WEATHER SERVICE DENVER/BOULDER CO
800 PM MDT MON MAR 30 2015

NOTE: "FAIR" INDICATES FEW OR NO CLOUDS BELOW 12000 FEET WITH NO
SIGNIFICANT WEATHER AND/OR OBSTRUCTIONS TO VISIBILITY.

COZ001>005-013-030-031-310300-
...NORTHWEST COLORADO...

CITY           SKY/WX    TMP DP  RH WIND       PRES   REMARKS
CRAIG          CLEAR     49  19  30 SW7       30.16S
HAYDEN         CLEAR     55  12  18 NW5       30.18R
MEEKER         CLEAR     51  21  30 NE8       30.16S
MOUNT WERNER   NOT AVBL
STEAMBOAT SPGS CLEAR     52  18  26 NW6       30.19R
WALDEN         CLEAR     45  12  26 W9        30.25R
$$

COZ006>008-011-310300-
...WEST CENTRAL VALLEYS...

CITY           SKY/WX    TMP DP  RH WIND       PRES   REMARKS
GRAND JUNCTION CLEAR     61  15  16 N7        30.06S
MONTROSE       PTCLDY    63  18  17 S9        30.15R
EAGLE          PTCLDY    61  12  15 NW6       30.19R
RIFLE          CLEAR     61  16  17 SW6       30.11R
DELTA          PTCLDY    67  14  12 N9        30.09S
NUCLA          PTCLDY    64  14  14 NW5       30.17S
$$

COZ017>023-064>068-310300-
...SOUTHWEST COLORADO...

CITY           SKY/WX    TMP DP  RH WIND       PRES   REMARKS
DURANGO        MOCLDY    59  14  17 NW6       30.17S
CORTEZ         CLEAR     63  19  18 CALM      30.15R
PAGOSA SPRINGS MOCLDY    54  20  26 CALM      30.25R
TELLURIDE      NOT AVBL
WOLF CREEK PAS CLOUDY    36  14  41 SW8       30.48R
$$

COZ009-010-012-014-032>034-037-058>063-310300-
...CENTRAL COLORADO...

CITY           SKY/WX    TMP DP  RH WIND       PRES   REMARKS
ASPEN          PTCLDY    47  22  37 S8        30.23R
BUENA VISTA    PTCLDY    49  15  25 W10       30.25R
COPPER MTN     PTCLDY    37   5  25 W14G22    30.44R
BERTHOUD PASS  FAIR      28  21  74 NW28G36   30.43S WCI  13
COTTONWOOD PAS PTCLDY    48   9  20 W13G21    30.35R
GUNNISON       PTCLDY    54  18  24 N7        30.27R
KREMMLING      CLEAR     50   9  18 W6        30.24S
LEADVILLE      PTCLDY    40  16  37 W10G20    30.34R
SALIDA         PTCLDY    57  10  15 NW3       30.29R
SUNLIGHT       PTCLDY    43  12  28 CALM      30.42R
WILKERSON PASS CLEAR     37   5  25 NW10G18   30.42R
$$

COZ069>075-310300-
...SAN LUIS VALLEY/SANGRE DE CRISTO MOUNTAINS...

CITY           SKY/WX    TMP DP  RH WIND       PRES   REMARKS
ALAMOSA        CLOUDY    58   9  14 SW8       30.20R
LA VETA PASS   PTCLDY    43   9  24 W6        30.34R
SAGUACHE       CLEAR     54  12  19 N12       30.24R
$$

COZ035-036-038>040-310300-
...NORTHERN COLORADO FRONT RANGE...

CITY           SKY/WX    TMP DP  RH WIND       PRES   REMARKS
DENVER INTL AP PTCLDY    54  27  35 S8        30.09R
DMNS CITY PARK   N/A     65   9  11 NW7G16    30.10R
AURORA         PTCLDY    62  20  20 NE3       30.12R
FRONT RANGE AP PTCLDY    57  30  35 S6        30.10R
ERIE MUNI ARPT CLEAR     59  15  18 CALM      30.08R
BOULDER MUN AP CLEAR     63  16  16 W9        30.09R
CENTENNIAL     PTCLDY    57  23  26 SE6       30.12R
BROOMFIELD     PTCLDY    63  10  13 W14       30.11R
FORT COLLINS   CLEAR     61  23  23 W7        30.09R
LONGMONT       CLEAR     63  15  15 NW10      30.10R
$$

COZ041-046-047-076>085-087-088-310300-
...PIKES PEAK/PALMER DIVIDE AND SOUTHERN FOOTHILLS...

CITY           SKY/WX    TMP DP  RH WIND       PRES   REMARKS
COLO. SPRINGS  MOCLDY    60  18  19 N9        30.14R
A. F. ACADEMY  PTCLDY    53  15  21 NE1       30.15R
ELLICOTT       PTCLDY   N/A N/A N/A NE12      30.12R
FALCON         PTCLDY    54  20  26 NE9       30.18R
FORT CARSON    PTCLDY    64  15  15 W3        30.10R
LIMON          CLEAR     51  21  30 NE10      30.10R
MONUMENT HILL  PTCLDY    52  19  28 CALM      30.18R
TRINIDAD       PTCLDY    60  19  20 SE9       30.10R
$$

COZ042>045-048>051-090-091-310300-
...NORTHEAST COLORADO...

CITY           SKY/WX    TMP DP  RH WIND       PRES   REMARKS
GREELEY ARPT   PTCLDY    63  21  20 E6        30.06R
AKRON          CLEAR     55  22  27 E7        30.07R
BURLINGTON     CLEAR     58  17  20 NE7       30.06R
WRAY           CLEAR     57  21  24 N9        30.04R
STERLING       CLEAR     63  25  23 E5        30.04R
HOLYOKE        NOT AVBL
FORT MORGAN    CLEAR    N/A N/A N/A NE6       30.07R
$$

COZ086-089-092>099-310300-
...SOUTHEAST COLORADO...

CITY           SKY/WX    TMP DP  RH WIND       PRES   REMARKS
PUEBLO         PTCLDY    61  16  17 E8        30.02R
LA JUNTA       CLEAR     63  20  19 SE7       30.02R
LAMAR          PTCLDY    56  25  30 S9        29.99R
SPRINGFIELD      N/A     54  20  26 N3        30.05R
$$



USA.gov is the U.S. government's official web portal to all federal, state and local government web resources and services.